STARLINK-3899, 52457

Orbit data source: Space-Track

STARLINK-3899, 52457 is a payload satellite owned by SpaceX/Seattle (US) in LEO that was launched on Fri, 06 May 2022 UTC via an FALCON 9 launch vehicle from the Air Force Eastern Test Range (AFETR). Payload-class satellites include a variety of spacecraft equipped with specific instruments for various scientific and technological missions. These include communications satellites like Starlink; space stations such as the ISS; scientific satellites like the Hubble; Earth observation satellites from companies like Planet Labs, Umbra, and HawkEye 360; GPS; miniature CubeSats for education and research; and military/defense satellites.

Loading next visibility...
Identifier
52457, 2022-049G
Orbit
LEO
Country
Flag of USUS
Related business
Manufacturer
SpaceX/Seattle
Mission
Operational Commercial Communications
Bus & Motor
STARLINK, Unknown motor
Mass
297 kg wet, ~220 kg dry
Launch date (UTC)
2022-05-06 (4 years ago)
Launch vehicle
FALCON 9
Launch site
Air Force Eastern Test Range (AFETR)
Object type
Payload
Rocket body
Debris
Shape & HBR
Box + 1 Pan, 10.1 m
Radar Cross Section
13.562 m², Large (>1 m²)

Expand to show TLE details & history
Last TLE update: 1 day ago

TLE from 1 day ago
0 STARLINK-3899
1 52457U 22049G   25348.44255798  .00004126  00000-0  27719-3 0  9998
2 52457  53.2181  91.7960 0001692 109.6811 250.4364 15.08837376199248
Epoch: 2025-12-14T10:37Z
TLE epoch observation values (Epoch: 2025-12-14T10:37:17.009Z)
Latitude
-0.00001°
Longitude
-150.88029°
Altitude
541.041 km
Speed
7.593 km/s
True Right ascension
06h 07m 11s
True Declination
0° 00' 00"
Sunlit
Object was in full shadow at epoch
Visualization orbit readout
Latitude
Unknown
Longitude
Unknown
Altitude
Unknown
Speed
Unknown
Apparent Right ascension
Unknown
Apparent Declination
Unknown
Sunlit
N/A
Visualization observer readout
Local Sidereal Time
18:10:27
Azimuth
Unknown
Elevation
Unknown
Doppler factor
Unknown
Orbital elements
Apogee altitude
541.167 km
Perigee altitude
538.826 km
Semi-major axis
6,918.133 km
Eccentricity
0.00017
Inclination
53.2181°
RAAN
91.796°
Arg. of periapsis
109.6811°
True anomaly
250.41813°
Mean anomaly
250.4364°
Eccentric anomaly
250.42727°
Mean motion
3.7719 °/min
Orbital period
95.44 mins
BSTAR
0.00027719
Loading maneuver chart data...
Computing Atmospheric mass density...
Loading historical data...
Loading historical data...
Loading historical data...
Loading historical data...
Loading historical data...
Loading historical data...
Loading historical data...

Documentation

Showing up to 5 results
|